Simultaneous Nadir Overpasses (SNOs) Predictions

Prediction of SNOs between GOES-17 and METOP-C Satellite Orbit:

Table of predicted SNOs for the next 14.0 days since TLE Epoch: 7/24/2021
Index Date Time (GOES-17) GOES-17 Lat,Lon METOP-C Lat,Lon Distance(km) Time Diff (sec)
1 07/24/2021 06:56:31 -0.01,-137.17 -0.95,-141.48 490.33 80
2 07/25/2021 06:38:30 -0.00,-137.16 0.13,-136.48 77.85 80
3 07/26/2021 18:54:43 -0.01,-137.16 0.86,-141.05 442.63 80
4 07/27/2021 18:36:43 -0.01,-137.15 -0.28,-136.06 125.59 80
5 07/29/2021 06:53:02 0.01,-137.13 -0.76,-140.65 400.95 80
6 07/30/2021 06:35:01 0.01,-137.11 0.32,-135.64 167.07 80
7 07/31/2021 18:51:13 -0.01,-137.11 0.66,-140.22 353.83 80
8 08/01/2021 18:33:13 -0.01,-137.09 -0.42,-135.21 213.89 80
9 08/03/2021 06:49:31 0.00,-137.05 -0.62,-139.80 313.53 80
10 08/04/2021 06:28:51 -0.02,-137.03 0.46,-134.80 253.99 80
11 08/05/2021 18:47:43 0.01,-137.01 0.52,-139.37 268.70 80
12 08/06/2021 18:29:43 0.00,-136.99 -0.57,-134.37 297.87 80
